SL-8 DEB *

Satellite information

Favourite Embed

Satellite Type and Status

DEBRISIN ORBIT

Key statistics

Satellite SL-8 DEB * at a glance.

Uptime

16382

Days in orbit

Revolutions

≈ 14.5

Per day

Orbit

LEO

Low Earth Orbit

Inclination

74.0

Latest

Satellite identification and parameters

Extended collection of information and parameters for SL-8 DEB *.

Object identification

Identified? True

Debris? True

Object name: SL-8 DEB *

International designator: 1980-056D

Object number (NORAD): 14809

Object ID (CCSDS): 14809

Country: COMMONWEALTH OF INDEPENDENT STATES (CIS)

Current information (Y/N): Y

RCS size: SMALL

Orbital parameters

Period: 99.01 minutes

Inclination: 74.0323 deg

SMA: 7089.455 km

Apoapsis: 717.509 km

Periapsis: 705.132 km

RAAN: 137.4741 deg

Eccentricy: 0.0008729

Argument of periapsis: 177.6004 deg

Mean anomaly: 239.4536 deg

Mean motion: 14.54398642 rev/day

Mean motion (dot): 0.00001763 rev/day2

B* drag term: 0.00042111 1/REarth

Two-line elements (TLE)

Creation date: May 8, 2025, 3:01 a.m.

Reference frame: TEME

Reference center: EARTH

Epoch: May 7, 2025, 7:24 p.m. UTC

TLE line 0: 0 SL-8 DEB *

TLE line 1: 1 14809U 80056D 25127.80843905 .00001763 00000-0 42111-3 0 9994

TLE line 2: 2 14809 74.0323 137.4741 0008729 177.6004 239.4536 14.54398642233401

Live tracking on map

Real-time ground track for satellite SL-8 DEB *.

In-orbit conjunctions

A list of the most updated potential collisions computed for object SL-8 DEB *.

Target Orbit TCA Probability of collision Miss distance Type
CZ-6A DEB LEO 2025-02-09 09:34:11 0.0001053656 744.0 (m) DEBRIS
CZ-6A DEB LEO 2024-11-05 00:37:24 0.0004946467 989.0 (m) DEBRIS

Associated space launch

Military communications satellite

SL-8 DEB * was lifted into orbit during the mission ‘Kosmos-3M | Strela-2M 23’, on board a Kosmos-3M space rocket.

The launch took place on July 1, 1980, 7:12 a.m. from 132/2.

For more information about the launch, click the button.

Launch to space Kosmos-3M | Strela-2M 23
Kosmos-3M | Strela-2M 23

Agency: N/A

Status: Launch Successful

Launch date: July 1, 1980, 7:12 a.m. UTC

Rocket: Kosmos-3M

Launch pad: 132/2

Location: Plesetsk Cosmodrome, Russian Federation

...

Latest news about this satellite

There are no fresh news available about this satellite. Check back as we update our databases every day.


Newsletter sign-up

Weekly statistics, charts and insights to help you stay on top of the space industry.